loading
|

THOR BURNER 2 R/B, 2741

Orbit data source: Space-Track

THOR BURNER 2 R/B, 2741 is space debris in SSO originally from a launch on Wed, 08 Feb 1967 UTC launched from the Air Force Western Test Range (AFWTR). Debris objects in space refer to the collection of defunct objects orbiting the Earth. Examples of debris include non-operational satellites, rocket bodies, and fragments generated from explosions, collisions, or faulty payload assembly.

Loading next visibility...
Loading greatness...
THOR BURNER 2 R/B details
Identifier
2741, 1967-010B
Orbit
SSO
Last TLE update10 hours ago
Origin
Flag of USUSAF SSD (US)
ManufacturerThiokol/TE
MissionSpacecraft
Bus & MotorSTAR 37, Unknown motor
Mass136 kg wet, 136 kg dry
Launch date (UTC)
1967-02-08 (58 years ago)
Launch vehicleUnknown
Launch site
Air Force Western Test Range (AFWTR)
Object type
Payload
Rocket body
Debris
Shape & HBRSphere + Cone + 1 Truss, 1.7 m
Radar Cross Section2.270 m², Large (>1 m²)

Expand to show TLE details & history

TLE from 10 hours ago
0 THOR BURNER 2 R/B
1 02741U 67010B   24284.53213338  .00001292  00000-0  52443-3 0  9991
2 02741  98.9068 211.9415 0051704 270.3223  89.2033 14.28730258997498
Epoch: 2024-10-10T12:46Z
Definitive object data (Epoch: 2024-10-10T12:46:16.324Z)
Latitude-0°
Longitude0.75815°
Altitude798.574 km
Speed7.454 km/s
True Right ascension14h 07m 45s
True Declination0° 00' 00"
Sunlit
Object was in daylight at TLE epoch
Predictive object data (real-time)
Latitude-65.85892°
Longitude21.52727°
Altitude786.922 km
Speed7.477 km/s
Apparent Right ascension06h 33m 58s
Apparent Declination-77° 21' 29"
Sunlit
Object is in daylight
Predictive observer data (real-time)
Local Sidereal Time16:52:09
Azimuth188.606° SSW
Elevation-51.048°
Doppler factor1
Orbital elements
Apogee830.213 km
Perigee756.056 km
Semi-major axis7,171.272 km
Eccentricity0.0051704
Inclination98.9068°
RAAN211.9415°
Arg. of periapsis270.3223°
True anomaly89.79577°
Mean anomaly89.2033°
Eccentric anomaly89.49953°
Mean motion3.57395 °/min
BSTAR0.00052443
Period100.73 mins
No data available
No data available
Other satellites on launch #10 in the year 1967 (1967-02-08 UTC)

THOR BURNER 2 R/B Visibility forecast

Observer location: 39.9160978°, -105.1181434

THOR BURNER 2 R/B is not visible in the next 10 days
Span
Click to sort rows by Start time (UTC) header in descending order
Start Az.
Max El. time (UTC)
Max El. Az.
Max El.
End time (UTC)
End Az.